Guantanamo Bay NAS, Cuba

4:02 AM CDT on August 23, 2017 (GMT -0400)
Guantanamo Bay Naval Air Station

Weather History for MUGM - August, 2017

Change the Weather History Date:

Sunday, August 13, 2017

  Actual Average Record
Temperature  
Mean Temperature 82 °F -  
Max Temperature 91 °F 87 °F 95 °F (1998)
Min Temperature 75 °F 75 °F 75 °F (2003)
Cooling Degree Days 18    
Growing Degree Days 32 (Base 50)    
Moisture  
Dew Point 78 °F    
Average Humidity 82    
Maximum Humidity 100    
Minimum Humidity 68    
Precipitation  
Precipitation 0.02 in - - ()
Sea Level Pressure  
Sea Level Pressure 29.99 in    
Wind  
Wind Speed 6 mph ()    
Max Wind Speed 14 mph    
Max Gust Speed -    
Visibility 6.2 miles    
Events Rain    
Averages and records for this station are not official NWS values.
T = Trace of Precipitation, MM = Missing Value Source: Averaged Metar Reports

Daily Weather History Graph

Daily Weather History Graph

Search for Another Location

Airport or City:

Trip Planner

Search our weather history database for the weather conditions in past years. The results will help you decide how hot, cold, wet, or windy it might be!

Date:

Astronomy

Aug. 13, 2017 Rise Set
Actual Time 6:40 AM CDT 7:30 PM CDT
Civil Twilight 6:17 AM CDT 7:53 PM CDT
Nautical Twilight 5:50 AM CDT 8:20 PM CDT
Astronomical Twilight 5:22 AM CDT 8:47 PM CDT
Moon 11:52 PM CDT (8/13) 11:52 AM CDT (8/13)
Length of Visible Light 13h 36m
Length of Day
12h 50m
Waning Gibbous, 65% of the Moon is Illuminated
Aug 13
Waning Gibbous
Aug 14
Last Quarter
Aug 21
New
Aug 29
First Quarter
Sep 6
Full

Hourly Weather History & Observations

Time (CDT) Temp. Heat Index Dew Point Humidity Pressure Visibility Wind Dir Wind Speed Gust Speed Precip Events Conditions
12:56 AM 81.0 °F 89.9 °F 80.1 °F 97% 30.00 in 6.2 mi Calm Calm - 0.02 in Rain Light Rain
1:56 AM 79.0 °F - 77.7 °F 96% 29.99 in 6.2 mi NNW 5.8 mph - 0.00 in   Scattered Clouds
2:56 AM 78.1 °F - 77.0 °F 96% 29.97 in 6.2 mi NNW 8.1 mph - N/A   Partly Cloudy
3:56 AM 78.1 °F - 75.9 °F 93% 29.96 in 6.2 mi NNW 5.8 mph - N/A   Partly Cloudy
4:56 AM 78.1 °F - 75.4 °F 91% 29.97 in 6.2 mi North 5.8 mph - N/A   Partly Cloudy
5:56 AM 78.1 °F - 75.4 °F 91% 29.97 in 6.2 mi North 6.9 mph - N/A   Partly Cloudy
6:56 AM 75.9 °F - 75.9 °F 100% 29.98 in 6.2 mi NNW 6.9 mph - N/A   Partly Cloudy
7:56 AM 79.0 °F - 78.1 °F 97% 29.99 in 6.2 mi NNW 6.9 mph - N/A   Partly Cloudy
8:56 AM 82.9 °F 92.8 °F 78.1 °F 85% 30.01 in 6.2 mi NNW 6.9 mph - N/A   Partly Cloudy
9:56 AM 87.1 °F 99.8 °F 78.1 °F 74% 30.02 in 6.2 mi Variable 3.5 mph - N/A   Partly Cloudy
10:56 AM 88.0 °F 101.3 °F 78.1 °F 72% 30.02 in 6.2 mi SE 8.1 mph - N/A   Partly Cloudy
11:56 AM 90.0 °F 105.8 °F 79.0 °F 70% 30.03 in 6.2 mi SSE 11.5 mph - N/A   Partly Cloudy
12:56 PM 90.0 °F 105.8 °F 79.0 °F 70% 30.03 in 6.2 mi SE 13.8 mph - N/A   Partly Cloudy
1:56 PM 90.0 °F 107.9 °F 80.1 °F 73% 30.01 in 6.2 mi SSE 13.8 mph - N/A   Partly Cloudy
2:56 PM 90.0 °F 105.8 °F 79.0 °F 70% 29.99 in 6.2 mi SE 10.4 mph - N/A   Partly Cloudy
3:56 PM 90.0 °F 104.5 °F 78.1 °F 68% 29.97 in 6.2 mi South 12.7 mph - N/A   Partly Cloudy
4:56 PM 89.1 °F 103.2 °F 78.1 °F 70% 29.97 in 6.2 mi South 10.4 mph - N/A   Partly Cloudy
5:56 PM 88.0 °F 101.3 °F 78.1 °F 72% 29.97 in 6.2 mi South 9.2 mph - N/A   Partly Cloudy
6:56 PM 87.1 °F 99.8 °F 78.1 °F 74% 29.98 in 6.2 mi South 8.1 mph - N/A   Partly Cloudy
7:56 PM 86.0 °F 98.3 °F 78.1 °F 77% 30.00 in 6.2 mi SSW 4.6 mph - N/A   Partly Cloudy
8:56 PM 84.9 °F 96.6 °F 78.1 °F 80% 30.00 in 6.2 mi South 4.6 mph - N/A   Partly Cloudy
9:56 PM 84.9 °F 96.6 °F 78.1 °F 80% 30.01 in 6.2 mi Calm Calm - N/A   Partly Cloudy
10:56 PM 84.9 °F 96.6 °F 78.1 °F 80% 30.02 in 6.2 mi Calm Calm - N/A   Partly Cloudy
11:56 PM 84.0 °F 96.0 °F 79.0 °F 85% 30.02 in 6.2 mi ESE 4.6 mph - N/A   Partly Cloudy